Regional Weather Roundup
Issued by NWS

Home | Current Version | Previous Version | Graphics & Text | Print | Product List | Glossary On
Versions: 1 2 3 4 5 6 7 8 9 10 11 12 13 14 15 16 17 18 19 20 21 22 23 24 25 26 27 28 29 30 31 32 33 34 35 36 37 38 39 40 41 42 43 44 45 46 47 48 49 50
000
ASUS43 KDTX 030201
RWRMI
MICHIGAN HOURLY REGIONAL WEATHER ROUNDUP
NATIONAL WEATHER SERVICE DETROIT/PONTIAC MI
1000 PM EDT MON MAY 02 2016

NOTE: "FAIR" INDICATES FEW OR NO CLOUDS BELOW 12,000 FEET WITH NO
SIGNIFICANT WEATHER AND/OR OBSTRUCTION TO VISIBILITY.

MIZ047>049-052>055-059>063-066>070-074>076-081>083-030300-
SOUTHEAST LOWER MICHIGAN

CITY           SKY/WX    TMP DP  RH WIND       PRES   REMARKS
ADRIAN         CLOUDY    50  45  83 CALM      29.98F
ALMA           PTCLDY    47  40  77 CALM      30.01S HAZE
ANN ARBOR      CLOUDY    49  46  90 CALM      29.98F
BAD AXE        CLEAR     45  32  60 CALM      29.99F
CARO           CLEAR     43  36  75 CALM      29.99S
DETROIT CITY   CLOUDY    50  41  71 E5        29.99S
DETROIT        MOCLDY    51  44  77 SW3       29.99F
FLINT          MOCLDY    51  42  71 CALM      29.99S
GROSSE ILE     CLOUDY    48  46  93 CALM      29.97F
HILLSDALE      CLOUDY    49  44  82 CALM      29.98F
HOWELL         CLOUDY    50  44  78 NW3       29.98S

CITY           SKY/WX    TMP DP  RH WIND       PRES   REMARKS
JACKSON        CLOUDY    49  45  86 CALM      29.98F
LAMBERTVILLE   CLOUDY    51  47  87 CALM      29.98F
LANSING        CLOUDY    50  43  77 CALM      30.00S
LAPEER         FAIR      45  38  79 CALM      29.99S
MASON          CLOUDY    50  44  80 CALM      29.99S
MONROE         CLOUDY    50  47  89 CALM      29.98S
PONTIAC        MOCLDY    50  39  66 NE5       29.97F
PORT HOPE        N/A     43  34  70 W3        29.98F
PORT HURON     CLEAR     43  37  81 CALM      30.00S
TRI CITIES     CLEAR     49  33  54 NE6       30.00F
MIDLAND        FAIR      44  33  66 CALM      30.00S
TROY           CLOUDY    54  43  67 NE3       30.00S
SAGINAW HB     CLEAR     46  34  61 N3        29.99F
$$
MIZ043>046-050>051-056>058-064>065-071>073-077>080-030300-
SOUTHWEST LOWER MICHIGAN

CITY           SKY/WX    TMP DP  RH WIND       PRES   REMARKS
BATTLE CREEK   CLOUDY    51  43  74 N3        30.00S
BENTON HARBOR  CLOUDY    48  38  68 CALM      30.01S
BIG RAPIDS     MOCLDY    52  32  46 S3        29.99S
COLDWATER      CLOUDY    49  46  90 CALM      29.99S
FREMONT        FAIR      51  37  59 CALM      30.00S
HOLLAND        CLEAR     45  39  79 CALM      30.01S
GRAND RAPIDS   PTCLDY    50  42  74 CALM      30.00F
IONIA          FAIR      47  42  82 CALM      29.99S
KALAMAZOO      CLOUDY    52  43  71 CALM      30.00S
LUDINGTON      CLEAR     49  32  51 CALM      30.00S
MARSHALL       CLOUDY    49  46  90 CALM      29.99S
MOUNT PLEASANT CLEAR     47  36  63 CALM      30.00S
MUSKEGON       MOCLDY    46  39  76 CALM      30.01S
SOUTH HAVEN    MOCLDY    46  40  79 CALM      30.01S
$$
MIZ016>042-030300-
NORTHERN LOWER MICHIGAN

CITY           SKY/WX    TMP DP  RH WIND       PRES   REMARKS
ALPENA         CLEAR     47  32  56 SE3       29.99S
BEAVER ISLAND  CLEAR     41  32  69 W5        30.00S
BELLAIRE       CLEAR     47  33  59 CALM      30.00S
CADILLAC       PTCLDY    51  30  45 CALM      29.99S
CHARLEVOIX     CLEAR     47  33  59 CALM      30.03S
FRANKFORT      CLEAR     47  33  59 CALM      30.00S
GAYLORD        CLEAR     52  29  41 CALM      30.00R
HARBOR SPRINGS CLEAR     41  36  82 CALM      30.00S
HOUGHTON LAKE  PTCLDY    50  31  48 SE5       30.00S
MANISTEE       CLEAR     45  30  57 CALM      30.00F
OSCODA         PTCLDY    45  33  63 SW3       29.99S
PELLSTON       CLEAR     46  33  60 N3        30.00S
ROGERS CITY    CLEAR     46  30  55 CALM      30.00S
TRAVERSE CITY  PTCLDY    47  36  65 CALM      29.99S
$$
MIZ007>008-015-030300-
EASTERN UPPER MICHIGAN

CITY           SKY/WX    TMP DP  RH WIND       PRES   REMARKS
KINROSS          N/A     43  34  70 CALM      30.00F
MACKINAC ISLAN CLEAR     48  33  55 NW8       30.00S
NEWBERRY       CLEAR     48  32  54 N3        29.99S
S. S. MARIE    CLEAR     42  31  64 W6        30.00S
MUNISING         N/A     41  33  73 S3        30.00S
$$
MIZ004>006-011>014-085-030300-
CENTRAL UPPER MICHIGAN

CITY           SKY/WX    TMP DP  RH WIND       PRES   REMARKS
MANISTIQUE     CLEAR     43  34  72 CALM      30.00S
ESCANABA       CLEAR     46  34  61 CALM      30.01R
MENOMINEE      CLEAR     50  30  46 CALM      29.99F
SAWYER-GWINN   CLEAR     46  32  57 SE3       29.99S
$$
MIZ001>003-009>011-084-030300-
WESTERN UPPER MICHIGAN

CITY           SKY/WX    TMP DP  RH WIND       PRES   REMARKS
IRON MOUNTAIN  PTCLDY    53  30  41 SE6       29.98R
HOUGHTON       CLEAR     47  32  56 S3        29.97F
COPPER HARBOR    N/A     46  34  62 VRB3      29.98F
IRONWOOD         N/A     50  32  50 CALM      29.97S
$$

ABBREVIATIONS USED IN REMARKS
   TC - TEMPERATURE IN CELSIUS
  WCI - WIND CHILL INDEX
   HX - HEAT INDEX
  VSB - VISIBILITY




USA.gov is the U.S. government's official web portal to all federal, state and local government web resources and services.